Thurmont, MD

11:57 PM EDT on September 20, 2017 (GMT -0400)
Thurmont

Weather History for KRSP - March, 2014

Change the Weather History Date:

Sunday, March 23, 2014

  Actual Average (KHGR) Record (KHGR)
Temperature  
Mean Temperature 32 °F -  
Max Temperature 37 °F 51 °F 80 °F (2012)
Min Temperature 21 °F 34 °F 21 °F (2004)
Degree Days  
Heating Degree Days 34    
Moisture  
Dew Point 17 °F    
Average Humidity 53    
Maximum Humidity 67    
Minimum Humidity 36    
Precipitation  
Precipitation 0.00 in - - ()
Sea Level Pressure  
Sea Level Pressure 30.06 in    
Wind  
Wind Speed 9 mph (NNW)    
Max Wind Speed 16 mph    
Max Gust Speed 31 mph    
Visibility 10 miles    
Events      
Averages and records for this station are not official NWS values.
T = Trace of Precipitation, MM = Missing Value Source: NWS Daily Summary

Daily Weather History Graph

Daily Weather History Graph

Search for Another Location

Airport or City:

Trip Planner

Search our weather history database for the weather conditions in past years. The results will help you decide how hot, cold, wet, or windy it might be!

Date:

Astronomy

Mar. 23, 2014 Rise Set
Actual Time 7:08 AM EDT 7:24 PM EDT
Civil Twilight 6:41 AM EDT 7:51 PM EDT
Nautical Twilight 6:10 AM EDT 8:23 PM EDT
Astronomical Twilight 5:37 AM EDT 8:55 PM EDT
Moon 1:39 AM EDT (3/23) 11:48 AM EDT (3/23)
Length of Visible Light 13h 10m
Length of Day
12h 16m
Waning Gibbous, 55% of the Moon is Illuminated
Mar 23
Waning Gibbous
Mar 23
Last Quarter
Mar 30
New
Apr 7
First Quarter
Apr 15
Full

Hourly Weather History & Observations

Time (EDT) Temp. Windchill Dew Point Humidity Pressure Visibility Wind Dir Wind Speed Gust Speed Precip Events Conditions
12:54 AM 37.0 °F 29.3 °F 24.1 °F 59% 30.01 in 10.0 mi North 11.5 mph 23.0 mph N/A   Clear
1:54 AM 35.1 °F 30.1 °F 24.1 °F 64% 30.03 in 10.0 mi Variable 5.8 mph 21.9 mph N/A   Clear
2:54 AM 34.0 °F 27.2 °F 21.9 °F 61% 30.03 in 10.0 mi North 8.1 mph 21.9 mph N/A   Clear
3:54 AM 32.0 °F 24.8 °F 21.9 °F 66% 30.05 in 10.0 mi North 8.1 mph 16.1 mph N/A   Clear
4:54 AM 30.9 °F 26.2 °F 21.0 °F 67% 30.05 in 10.0 mi Variable 4.6 mph 21.9 mph N/A   Clear
5:54 AM 32.0 °F 27.5 °F 21.0 °F 64% 30.05 in 10.0 mi Variable 4.6 mph - N/A   Clear
7:54 AM 32.0 °F 25.6 °F 21.0 °F 64% 30.10 in 10.0 mi NNW 6.9 mph - N/A   Clear
9:54 AM 33.1 °F 24.9 °F 21.0 °F 61% 30.10 in 10.0 mi North 10.4 mph 16.1 mph N/A   Mostly Cloudy
10:54 AM 34.0 °F 31.0 °F 21.9 °F 61% 30.08 in 10.0 mi Variable 3.5 mph 21.9 mph N/A   Mostly Cloudy
11:15 AM 35.6 °F 27.1 °F 21.2 °F 56% 30.02 in 10.0 mi NNW 12.7 mph 19.6 mph N/A   Overcast
12:54 PM 35.1 °F 30.1 °F 21.9 °F 59% 30.09 in 10.0 mi NNW 5.8 mph - N/A   Overcast
1:13 PM 35.6 °F 31.7 °F 21.2 °F 56% 30.02 in 10.0 mi Variable 4.6 mph - N/A   Overcast
1:42 PM 35.6 °F 29.2 °F 21.2 °F 56% 30.01 in 10.0 mi NW 8.1 mph 19.6 mph N/A   Mostly Cloudy
1:54 PM 37.0 °F 31.6 °F 21.0 °F 52% 30.06 in 10.0 mi Variable 6.9 mph - N/A   Mostly Cloudy
2:54 PM 35.1 °F 26.9 °F 18.0 °F 50% 30.05 in 10.0 mi NW 11.5 mph 23.0 mph N/A   Overcast
3:54 PM 36.0 °F 28.5 °F 17.1 °F 46% 30.04 in 10.0 mi NW 10.4 mph 20.7 mph N/A   Overcast
4:54 PM 37.0 °F 29.8 °F 12.9 °F 37% 30.02 in 10.0 mi NNW 10.4 mph 20.7 mph N/A   Mostly Cloudy
5:54 PM 36.0 °F 30.3 °F 10.9 °F 36% 30.03 in 10.0 mi Variable 6.9 mph 24.2 mph N/A   Scattered Clouds
6:54 PM 33.1 °F 23.4 °F 9.0 °F 37% 30.04 in 10.0 mi NNW 13.8 mph 24.2 mph N/A   Clear
7:54 PM 30.0 °F 18.7 °F 8.1 °F 40% 30.07 in 10.0 mi NNW 16.1 mph 31.1 mph N/A   Clear
8:54 PM 28.0 °F 17.5 °F 6.1 °F 39% 30.10 in 10.0 mi NNW 12.7 mph 27.6 mph N/A   Clear
9:54 PM 26.1 °F 15.0 °F 7.0 °F 44% 30.14 in 10.0 mi North 12.7 mph 24.2 mph N/A   Clear
11:54 PM 21.9 °F 11.0 °F 5.0 °F 48% 30.17 in 10.0 mi NNW 10.4 mph 25.3 mph N/A   Clear